Stations météo

Publicité
Grenoble/St.Geoirs, France (7486): Température de l'air & dewpoint: 25.04.2017 04:00:00 - 01.05.2017 04:00:00 (CEST)Grenoble/St.Geoirs, France (7486): Température de l'air 5cm: 25.04.2017 04:00:00 - 01.05.2017 04:00:00 (CEST)Grenoble/St.Geoirs, France (7486): Température de l'air -20cm & Température de l'air -100cm: 25.04.2017 04:00:00 - 01.05.2017 04:00:00 (CEST)Grenoble/St.Geoirs, France (7486): Vitesse du vent & gusts: 25.04.2017 04:00:00 - 01.05.2017 04:00:00 (CEST)Grenoble/St.Geoirs, France (7486): Direction du vent: 25.04.2017 04:00:00 - 01.05.2017 04:00:00 (CEST)Grenoble/St.Geoirs, France (7486): reduced air pressure: 25.04.2017 04:00:00 - 01.05.2017 04:00:00 (CEST)Grenoble/St.Geoirs, France (7486): visibility: 25.04.2017 04:00:00 - 01.05.2017 04:00:00 (CEST)Grenoble/St.Geoirs, France (7486): Ensoleillement: 25.04.2017 04:00:00 - 01.05.2017 04:00:00 (CEST)Grenoble/St.Geoirs, France (7486): Quantités de précipitations: 25.04.2017 04:00:00 - 01.05.2017 04:00:00 (CEST)
Date & Time tt [°C] td [°C] tt 5cm [°C] tt -20cm [°C] tt -100cm [°C] ff [km/h] ff [knt] fx [km/h] fx [knt] dd ppp [hPa] vv [km] sd [min] rr [mm]
01.05.2017 04:00:00 3,5 1,9 3,1 11,9 11,0 11 6 15 8 SSE 1014,9 10 0 2,0
01.05.2017 03:00:00 4,7 2,9 4,1 12,0 11,1 9 5 22 12 SSW 1014,6 8 0 3,4
01.05.2017 02:00:00 6,0 4,5 5,6 12,0 11,0 12 6 17 9 SW 1013,9 6 0 2,0
01.05.2017 01:00:00 6,4 5,2 5,9 12,0 11,0 6 3 26 14 WSW 1012,9 13 0 1,6
01.05.2017 00:00:00 6,6 5,2 6,1 12,1 11,0 13 7 67 36 WSW 1011,8 7 0 1,4
30.04.2017 23:00:00 8,4 5,7 7,5 12,1 11,0 45 25 65 35 W 1009,8 8 0 0,0
30.04.2017 22:00:00 10,0 4,8 9,1 12,0 11,0 12 7 23 12 NW 1007,4 60 0 0,0
30.04.2017 21:00:00 11,3 3,8 10,5 12,0 11,0 19 10 29 16 W 1007,0 60 6 0,0
30.04.2017 20:00:00 12,8 3,4 12,2 11,8 11,0 21 11 40 22 W 1006,4 54 18 0,0
30.04.2017 19:00:00 16,3 2,7 15,1 11,7 11,0 23 13 44 24 SW 1005,4 23 43 0,0
30.04.2017 18:00:00 16,1 1,8 16,1 11,6 11,0 23 12 45 24 SW 1005,7 29 24 0,0
30.04.2017 17:00:00 15,7 1,4 17,2 11,5 11,0 25 13 38 20 SW 1006,4 41 9 0,0
30.04.2017 16:00:00 15,8 1,5 16,9 11,4 11,1 28 15 42 23 SW 1007,2 20 1 0,0
30.04.2017 15:00:00 16,8 2,0 18,2 11,2 11,0 23 12 44 24 SSW 1007,5 18 29 0,0
30.04.2017 14:00:00 17,0 2,6 18,2 11,1 11,0 26 14 39 21 SW 1008,2 23 35 0,0
30.04.2017 13:00:00 15,5 1,2 17,0 11,1 11,0 23 12 41 22 SSW 1009,1 28 22 0,0
30.04.2017 12:00:00 15,6 2,0 15,9 11,1 11,0 22 12 38 20 SW 1009,7 20 32 0,0
30.04.2017 11:00:00 13,6 1,9 14,5 11,1 11,0 13 7 27 15 SSW 1010,5 59 32 0,0
30.04.2017 10:00:00 12,7 1,7 11,5 11,2 11,0 14 8 23 13 SSW 1011,4 60 47 0,0
30.04.2017 09:00:00 10,7 2,5 8,8 11,3 11,0 13 7 25 14 S 1012,3 20 34 0,0
30.04.2017 08:00:00 9,1 4,3 6,9 11,4 11,0 6 3 14 8 SSE 1013,2 25 55 0,0
30.04.2017 07:00:00 6,7 4,5 4,2 11,5 11,0 7 4 15 8 SSE 1013,7 20 2 0,0
30.04.2017 06:00:00 5,3 3,5 2,7 11,6 11,1 7 4 12 7 SE 1013,8 13 0 0,0
30.04.2017 05:00:00 7,4 4,2 1,7 11,7 11,1 7 4 21 11 S 1013,7 21 0 0,0
30.04.2017 04:00:00 4,7 1,9 1,3 11,8 11,1 6 3 10 6 SE 1014,6 31 0 0,0
30.04.2017 03:00:00 6,9 3,1 3,3 11,8 11,1 4 2 10 5 ESE 1014,3 50 0 0,0
30.04.2017 02:00:00 6,3 2,0 3,8 11,9 11,1 7 4 22 12 NE 1014,6 54 0 0,0
30.04.2017 01:00:00 9,5 1,4 8,5 11,9 11,1 12 6 28 15 SW 1014,2 59 0 0,0
30.04.2017 00:00:00 10,4 0,7 9,4 11,9 11,1 18 10 36 19 SSW 1013,9 55 0 0,0
29.04.2017 23:00:00 11,3 -1,2 10,0 11,9 11,1 18 10 32 17 SSW 1013,5 22 0 0,0
29.04.2017 22:00:00 11,3 -0,2 7,8 11,8 11,1 10 6 20 11 SSW 1013,4 25 0 0,0
29.04.2017 21:00:00 12,7 0,1 6,9 11,6 11,1 7 4 14 8 S 1012,8 58 3 0,0
29.04.2017 20:00:00 15,1 -0,7 14,7 11,4 11,1 6 4 15 8 SSW 1012,1 56 60 0,0
29.04.2017 19:00:00 16,6 -0,2 19,1 11,1 11,1 11 6 22 12 SSW 1012,0 51 60 0,0
29.04.2017 18:00:00 17,0 -0,3 20,5 10,8 11,1 12 6 22 12 WSW 1012,3 56 60 0,0
29.04.2017 17:00:00 16,8 -1,4 21,6 10,5 11,1 11 6 31 17 WSW 1012,8 47 60 0,0
29.04.2017 16:00:00 16,6 0,7 22,5 10,2 11,1 7 4 16 9 S 1013,6 19 60 0,0
29.04.2017 15:00:00 15,3 1,0 22,0 10,0 11,1 9 5 15 8 W 1014,7 20 60 0,0
29.04.2017 14:00:00 13,9 0,5 20,1 9,8 11,1 5 3 12 7 W 1015,4 32 60 0,0
29.04.2017 13:00:00 12,6 -2,1 17,2 9,7 11,1 6 3 22 12 ESE 1016,2 20 60 0,0
29.04.2017 12:00:00 11,3 0,1 14,9 9,7 11,1 11 6 25 14 E 1016,8 15 60 0,0
29.04.2017 11:00:00 9,7 -0,5 13,0 9,8 11,2 14 7 29 16 E 1017,5 15 60 0,0
29.04.2017 10:00:00 8,4 0,1 10,8 9,9 11,2 13 7 23 13 E 1017,9 10 60 0,0
29.04.2017 09:00:00 6,7 1,8 6,7 10,0 11,2 10 5 16 8 ESE 1018,1 15 60 0,0
29.04.2017 08:00:00 2,6 0,5 -2,2 10,1 11,2 7 4 11 6 E 1019,2 12 60 0,0
29.04.2017 07:00:00 -1,7 -3,1 -5,2 10,3 11,2 10 5 14 8 ESE 1019,8 11 7 0,0
29.04.2017 06:00:00 -1,4 -3,0 -4,7 10,4 11,2 10 5 13 7 E 1019,5 12 0 0,0
29.04.2017 05:00:00 -1,2 -2,5 -4,9 10,5 11,2 8 4 11 6 E 1019,7 13 0 0,0
29.04.2017 04:00:00 -1,2 -2,8 -5,1 10,6 11,2 9 5 11 6 ESE 1020,0 17 0 0,0
29.04.2017 03:00:00 -0,8 -2,4 -3,9 10,7 11,2 8 5 12 6 E 1020,0 11 0 0,0
29.04.2017 02:00:00 -0,8 -2,2 -4,4 10,8 11,2 5 3 9 5 SE 1020,4 10 0 0,0
29.04.2017 01:00:00 0,0 -1,6 -3,7 10,9 11,2 4 2 14 8 NW 1020,6 10 0 0,0
29.04.2017 00:00:00 0,9 -1,7 -2,9 10,9 11,3 5 3 8 4 SE 1020,4 17 0 0,0
28.04.2017 23:00:00 1,5 -1,9 -2,2 11,0 11,3 7 4 12 6 ESE 1020,1 26 0 0,0
28.04.2017 22:00:00 2,5 -1,9 -1,7 10,9 11,3 4 2 11 6 NE 1019,7 34 0 0,0
28.04.2017 21:00:00 4,6 0,0 1,9 10,9 11,3 8 4 17 9 NNE 1018,9 32 15 0,0
28.04.2017 20:00:00 8,9 -0,7 8,4 10,8 11,3 14 8 31 17 NNE 1017,8 24 50 0,0
28.04.2017 19:00:00 8,4 -1,7 8,5 10,7 11,3 15 8 31 17 NNE 1017,7 39 24 0,0
28.04.2017 18:00:00 9,1 0,0 9,4 10,6 11,3 9 5 28 15 N 1017,5 29 21 0,0
28.04.2017 17:00:00 9,6 1,2 9,9 10,5 11,3 15 8 32 17 ENE 1017,2 29 16 0,0
28.04.2017 16:00:00 9,2 -1,0 10,4 10,4 11,3 22 12 38 21 N 1017,2 22 12 0,0
28.04.2017 15:00:00 9,5 -1,6 10,3 10,3 11,3 25 13 36 20 N 1017,2 57 11 0,0
28.04.2017 14:00:00 8,4 0,1 9,5 10,2 11,3 23 12 41 22 N 1017,5 20 21 0,0
28.04.2017 13:00:00 7,7 -0,3 9,2 10,2 11,3 23 12 48 26 NNW 1017,5 21 29 0,0
28.04.2017 12:00:00 7,4 0,4 7,6 10,2 11,3 22 12 45 24 N 1017,8 20 5 0,0
28.04.2017 11:00:00 7,1 1,0 9,3 10,2 11,3 21 11 40 22 N 1017,6 20 48 0,0
28.04.2017 10:00:00 5,2 0,0 7,4 10,3 11,3 19 10 40 22 N 1017,6 20 60 0,0
28.04.2017 09:00:00 3,6 -0,1 2,8 10,4 11,3 15 8 30 16 NNW 1017,5 25 7 0,0
28.04.2017 08:00:00 2,6 -0,3 2,3 10,5 11,4 5 3 24 13 W 1017,3 27 0 0,0
28.04.2017 07:00:00 3,0 -0,1 2,4 10,6 11,4 13 7 36 19 NW 1016,4 31 0 0,0
28.04.2017 06:00:00 2,8 0,4 2,4 10,6 11,4 12 7 22 12 NW 1015,9 29 0 0,0
28.04.2017 05:00:00 3,0 0,6 2,2 10,7 11,4 10 5 37 20 NW 1015,7 30 0 0,0
28.04.2017 04:00:00 3,3 1,2 2,7 10,8 11,4 22 12 43 23 NNW 1015,0 13 0 0,2
28.04.2017 03:00:00 3,6 1,1 2,9 10,8 11,4 21 11 46 25 NNW 1015,1 24 0 0,0
28.04.2017 02:00:00 3,7 1,6 3,1 10,9 11,4 20 11 49 27 NW 1015,1 13 0 0,0
28.04.2017 01:00:00 3,7 2,1 3,0 11,0 11,4 24 13 36 20 NNW 1015,1 6 0 0,2
28.04.2017 00:00:00 3,4 1,9 2,7 11,0 11,4 17 9 44 24 NNW 1015,1 11 0 0,4
27.04.2017 23:00:00 3,4 1,4 2,8 11,0 11,4 26 14 45 24 N 1015,1 16 0 0,0
27.04.2017 22:00:00 4,1 1,5 3,4 11,0 11,4 21 11 40 22 N 1015,0 14 0 0,0
27.04.2017 21:00:00 4,6 1,4 3,9 11,0 11,4 21 11 40 22 NNW 1014,5 32 0 0,2
27.04.2017 20:00:00 6,6 1,1 6,2 11,0 11,4 8 4 20 11 N 1013,8 25 30 0,0
27.04.2017 19:00:00 7,1 1,6 8,2 10,9 11,4 7 4 19 10 ENE 1013,8 27 0 0,0
27.04.2017 18:00:00 7,4 2,1 8,7 10,9 11,4 11 6 19 10 E 1013,8 20 6 0,0
27.04.2017 17:00:00 7,6 0,8 8,3 10,9 11,4 10 6 24 13 ENE 1014,1 33 0 0,0
27.04.2017 16:00:00 7,0 0,6 7,9 11,0 11,4 14 8 30 16 N 1014,5 36 0 0,0
27.04.2017 15:00:00 6,4 0,7 6,9 11,0 11,4 14 8 35 19 N 1015,1 31 0 0,0
27.04.2017 14:00:00 5,8 0,3 6,5 11,0 11,4 16 9 31 17 N 1015,4 36 0 0,0
27.04.2017 13:00:00 5,2 0,6 6,0 11,1 11,4 16 9 30 16 NNW 1015,9 33 0 0,0
27.04.2017 12:00:00 4,8 0,7 5,5 11,1 11,4 13 7 25 14 N 1016,1 20 0 0,0
27.04.2017 11:00:00 4,4 0,5 5,4 11,1 11,4 13 7 31 17 N 1016,2 23 0 0,0
27.04.2017 10:00:00 4,0 0,5 4,0 11,3 11,4 9 5 19 11 N 1016,2 29 0 0,0
27.04.2017 09:00:00 3,2 0,6 3,4 11,3 11,5 3 2 16 9 NNW 1016,4 17 0 0,0
27.04.2017 08:00:00 3,1 0,8 2,9 11,4 11,4 6 4 24 13 WNW 1015,9 15 0 0,0
27.04.2017 07:00:00 2,9 1,1 2,8 11,5 11,4 11 6 22 12 N 1015,5 10 0 0,0
27.04.2017 06:00:00 2,9 1,1 2,8 11,5 11,4 9 5 26 14 N 1016,2 12 0 0,0
27.04.2017 05:00:00 3,0 1,4 3,0 11,6 11,4 12 7 22 12 NW 1016,0 14 0 0,0
27.04.2017 04:00:00 3,3 1,5 3,2 11,7 11,4 12 6 21 12 NNW 1015,8 16 0 0,0
27.04.2017 03:00:00 3,5 1,9 3,4 11,8 11,4 8 5 22 12 NNW 1015,9 12 0 0,0
27.04.2017 02:00:00 3,7 2,4 3,7 11,8 11,5 15 8 24 13 N 1016,1 9 0 0,0
27.04.2017 01:00:00 4,2 2,5 3,8 11,9 11,5 14 8 21 11 N 1015,8 18 0 0,0
27.04.2017 00:00:00 4,7 3,0 4,2 11,9 11,4 5 3 8 4 NNW 1015,7 13 0 0,2
26.04.2017 23:00:00 4,6 2,6 4,0 11,9 11,4 0 0 5 3 N 1015,5 17 0 0,2
26.04.2017 22:00:00 4,8 3,1 4,3 12,0 11,5 3 2 8 4 N 1015,1 14 0 0,6
26.04.2017 21:00:00 5,1 3,4 4,5 12,0 11,4 5 3 10 6 NNW 1014,2 9 0 0,4
26.04.2017 20:00:00 5,2 3,0 4,8 12,0 11,4 8 4 16 9 NNE 1013,4 26 0 0,0
26.04.2017 19:00:00 5,6 3,1 5,8 11,9 11,4 11 6 24 13 NNW 1013,2 19 0 0,0
26.04.2017 18:00:00 5,9 2,9 6,4 11,9 11,4 14 8 20 11 N 1012,5 31 0 0,0
26.04.2017 17:00:00 7,0 3,2 8,7 11,9 11,4 11 6 23 13 N 1011,6 37 9 0,0
26.04.2017 16:00:00 6,5 3,5 8,0 11,9 11,4 11 6 23 12 NNE 1012,1 21 0 0,0
26.04.2017 15:00:00 6,3 3,5 8,6 11,9 11,4 14 7 19 10 NNW 1012,0 25 0 0,0
26.04.2017 14:00:00 6,2 2,6 7,9 11,9 11,4 2 1 8 4 WNW 1012,0 30 0 0,0
26.04.2017 13:00:00 5,4 2,9 6,5 11,9 11,4 4 2 16 9 NW 1012,1 18 0 0,0
26.04.2017 12:00:00 4,9 2,9 6,7 12,0 11,4 6 4 20 11 NW 1012,0 20 0 0,0
26.04.2017 11:00:00 5,5 3,7 5,5 12,1 11,4 9 5 14 8 NNW 1011,4 53 0 0,0
26.04.2017 10:00:00 4,5 2,5 4,1 12,1 11,4 6 3 14 8 NNE 1010,9 18 0 0,0
26.04.2017 09:00:00 4,2 2,5 3,9 12,2 11,4 8 4 21 11 WNW 1010,9 5 0 0,2
26.04.2017 08:00:00 4,3 2,6 4,0 12,2 11,4 8 4 18 10 NNW 1010,1 12 0 0,0
26.04.2017 07:00:00 4,9 3,4 4,6 12,3 11,4 9 5 17 9 WNW 1008,8 20 0 0,0
26.04.2017 06:00:00 5,4 4,2 5,1 12,4 11,4 10 5 29 16 N 1007,7 11 0 0,8
26.04.2017 05:00:00 7,9 7,0 7,5 12,4 11,4 4 2 10 6 NNE 1007,1 11 0 1,2
26.04.2017 04:00:00 8,1 7,0 7,8 12,5 11,4 0 0 8 4 N 1007,5 4,9 0 3,2
26.04.2017 03:00:00 8,0 6,8 7,7 12,6 11,4 5 3 8 4 E 1007,7 5 0 1,4
26.04.2017 02:00:00 8,4 7,2 7,5 12,6 11,4 4 2 6 3 NNW 1008,3 8 0 0,6
26.04.2017 01:00:00 8,4 6,4 7,5 12,6 11,4 2 1 12 7 SSE 1008,7 12 0 1,8
26.04.2017 00:00:00 9,1 7,0 8,2 12,7 11,3 14 7 27 15 W 1008,9 7 0 2,0
25.04.2017 23:00:00 9,9 6,6 8,5 12,7 11,4 10 5 25 14 W 1007,8 11 0 0,2
25.04.2017 22:00:00 10,0 6,2 8,6 12,7 11,4 8 4 22 12 NNW 1006,7 18 0 1,4
25.04.2017 21:00:00 11,7 4,9 9,9 12,7 11,3 10 5 21 11 WSW 1006,0 39 0 0,0
25.04.2017 20:00:00 14,3 2,8 12,6 12,7 11,3 10 5 32 17 WSW 1005,3 60 0 0,0
25.04.2017 19:00:00 14,2 5,0 13,0 12,7 11,3 15 8 32 17 WSW 1005,6 51 0 0,0
25.04.2017 18:00:00 13,6 8,6 13,5 12,6 11,3 0 0 9 5 N 1006,5 23 0 0,0
25.04.2017 17:00:00 13,6 7,6 13,8 12,6 11,3 5 3 18 10 WSW 1006,4 34 0 0,0
25.04.2017 16:00:00 13,7 7,0 14,2 12,6 11,3 12 6 22 12 SW 1008,0 31 0 0,0
25.04.2017 15:00:00 12,4 8,9 14,6 12,6 11,3 4 2 10 5 N 1009,4 15 0 0,0
25.04.2017 14:00:00 12,2 9,0 10,8 12,6 11,3 7 4 18 10 WNW 1010,4 14 0 0,0
25.04.2017 13:00:00 10,5 8,6 9,7 12,6 11,3 14 8 28 15 NW 1012,1 12 0 1,0
25.04.2017 12:00:00 11,4 6,5 10,4 12,6 11,3 9 5 40 22 WSW 1012,1 18 0 0,0
25.04.2017 11:00:00 13,5 6,6 14,4 12,6 11,3 23 12 41 22 SW 1011,7 20 20 0,0
25.04.2017 10:00:00 12,8 7,0 13,5 12,7 11,3 19 10 43 23 SW 1011,2 25 15 0,0
25.04.2017 09:00:00 12,1 7,2 11,9 12,7 11,3 13 7 39 21 SW 1011,8 20 2 0,0
25.04.2017 08:00:00 11,5 7,6 10,6 12,8 11,3 14 7 31 17 SW 1012,2 18 24 0,0
25.04.2017 07:00:00 10,8 7,5 10,4 12,8 11,3 11 6 29 16 SW 1012,2 16 0 0,0
25.04.2017 06:00:00 10,9 7,6 10,3 12,9 11,2 16 9 31 17 SW 1012,5 15 0 0,0
25.04.2017 05:00:00 10,8 7,7 9,9 13,0 11,3 20 11 33 18 SW 1012,9 15 0 0,0
25.04.2017 04:00:00 10,9 7,0 9,2 13,0 11,2 11 6 38 20 SW 1013,3 19 0 0,0

tt = Température de l'air
td = dewpoint
tt 5cm = Température de l'air 5cm
tt -20cm = Température de l'air -20cm
tt -100cm = Température de l'air -100cm
ff = Vitesse du vent
fx = gusts
dd = Direction du vent
ppp = reduced air pressure
vv = visibility
sd = Ensoleillement
rr = Quantités de précipitations

stations d'obs. à proximité